Regional Weather Roundup
Issued by NWS Kansas City/Pleasant Hill, MO

Home | Current Version | Previous Version | Graphics & Text | Print | Product List | Glossary Off
Versions: 1 2 3 4 5 6 7 8 9 10 11 12 13 14 15 16 17 18 19 20 21 22 23 24 25 26 27 28 29 30 31 32 33 34 35 36 37 38 39 40 41 42 43 44 45 46 47 48 49 50

000
ASUS43 KEAX 032211
RWREAX

WEATHER ROUNDUP FOR EASTERN KANSAS AND NORTHWEST MISSOURI
NATIONAL WEATHER SERVICE KANSAS CITY/PLEASANT HILL MO
400 PM CST TUE MAR 03 2015

KSZ040-057-103>105-MOZ028-029-037-043-032300-
...KANSAS CITY METROPOLITAN AREA...

CITY           SKY/WX    TMP DP  RH WIND       PRES   REMARKS
K.C. INTL      CLOUDY    41  29  62 N12       29.83S WCI  34
K.C. DOWNTOWN  CLOUDY    43  29  57 N12G20    29.84R
LEES SUMMIT    CLOUDY    42  32  67 N16       29.83S WCI  34
OLATHE - IXD   CLOUDY    42  31  64 N14       29.86R WCI  35
OLATHE - OJC   CLOUDY    43  31  62 N13       29.84R
LAWRENCE       CLOUDY    43  28  55 N12       29.86R

$$

MOZ001>008-011>017-020>025-030>033-038>040-044>046-053-054-032300-
...NORTHERN AND CENTRAL MISSOURI...

CITY           SKY/WX    TMP DP  RH WIND       PRES   REMARKS
ST. JOSEPH     CLOUDY    41  28  60 N15       29.88R WCI  33
MOSBY          CLOUDY    41  30  65 N10       29.84F WCI  35
WARRENSBURG    CLOUDY    41  34  75 NW12G17   29.83R WCI  34
WHITEMAN AFB   CLOUDY    43  39  86 N10       29.81S
CLINTON        CLOUDY    45  43  93 S6        29.84R
SEDALIA        CLOUDY    44  39  82 W7        29.81F
WARSAW         NOT AVBL
MARSHALL       CLOUDY    45  43  93 W9        29.81R FOG
CHILLICOTHE      N/A     39  31  72 NW9       29.88R WCI  33
KIRKSVILLE     NOT AVBL

$$

MOZ041-047>049-056>058-063>065-088>090-097-032300-
...EASTERN AND SOUTHERN MISSOURI...

CITY           SKY/WX    TMP DP  RH WIND       PRES   REMARKS
ST. LOUIS INTL CLOUDY    45  42  89 W6        29.83R FOG
SPIRIT OF STL  CLOUDY    43  42  97 CALM      29.82R FOG
COLUMBIA       CLOUDY    44  39  82 W10       29.82S
JEFFERSON CITY CLOUDY    47  39  74 W13       29.83R
MEXICO         CLOUDY    41  41 100 W7        29.82R
HANNIBAL       MIX PCPN  39  37  93 W6        29.83R VSB 1   WCI  35
ROLLA          CLOUDY    46  40  79 W12G22    29.80R
LEBANON        CLOUDY    48  43  81 W7        29.83R
OSAGE BEACH    CLOUDY    46  37  71 W9        29.83R
SPRINGFIELD    CLOUDY    49  45  86 W7        29.84R
BRANSON        CLOUDY    55  50  82 W8        29.82F
NEVADA         CLOUDY    45  41  87 SW3       29.85R
JOPLIN         CLOUDY    47  44  90 SW8       29.85R
WEST PLAINS    CLOUDY    49  46  90 CALM      29.83S FOG

$$

IAZ060-094-KSZ022-034>040-054-083-096-NEZ052-066-093-032300-
...KANSAS...SOUTHEAST NEBRASKA AND IOWA...

CITY           SKY/WX    TMP DP  RH WIND       PRES   REMARKS
TOPEKA         CLOUDY    44  27  51 N12G22    29.85F
MANHATTAN      CLOUDY    42  27  55 N14G21    29.88R WCI  35
EMPORIA        CLOUDY    44  29  55 N12       29.84R
CHANUTE        CLOUDY    49  39  68 W5        29.84S
WICHITA        CLOUDY    46  28  49 N10       29.87R
OMAHA          PTSUNNY   32  18  56 N21G32    29.91R WCI  20
LINCOLN        PTSUNNY   35  16  45 N25       29.93R WCI  23
FALLS CITY     CLOUDY    37  23  56 NW15G28   29.90R WCI  28
LAMONI         CLOUDY    35  27  72 NW16      29.84R WCI  25
DES MOINES     CLOUDY    33  25  72 N22G32    29.83R WCI  21

$$




USA.gov is the U.S. government's official web portal to all federal, state and local government web resources and services.